Location: Piotrkow Trybunalski
(51.4000°N, 19.6830°E)
Time: 08:53:03
(UTC+01:00)

BlueWalker 3 - Pass Details

Date: 08 December 2022
Orbit: 499 x 517 km, 53.2° (Epoch: 29 January)

Event Time Altitude Azimuth Distance (km) Brightness Sun altitude
Rises 18:24:11 0° 289° (WNW) 2,629 6.6 -25.4°
Reaches altitude 10° 18:26:34 10° 278° (W) 1,735 5.6 -25.8°
Maximum altitude 18:29:59 29° 217° (SW) 957 3.6 -26.3°
Enters shadow 18:30:10 29° 212° (SSW) 960 3.6 -26.3°
